This is the latest recevied weather packets stored in our database for station/object AD8AK. If no packets are shown the sender has not sent any weather packets the latest 10 day(s).
| Time | Temp. | Humidity | Pressure | Rain* | Wind** | Luminosity | Snow |
|---|---|---|---|---|---|---|---|
| 1777148668 | 15° C | 84% | 1012.6 hPa | 0 mm | - | - | - |
| 1777148364 | 15° C | 83% | 1012.7 hPa | 0 mm | - | - | - |
| 1777148060 | 15° C | 83% | 1012.5 hPa | 0 mm | - | - | - |
| 1777147757 | 15.56° C | 83% | 1012.6 hPa | 0 mm | - | - | - |
| 1777147453 | 15.56° C | 82% | 1012.4 hPa | 0 mm | - | - | - |
| 1777147148 | 16.11° C | 80% | 1012.3 hPa | 0 mm | - | - | - |
| 1777146844 | 16.67° C | 79% | 1012.5 hPa | 0 mm | - | - | - |
| 1777146541 | 16.67° C | 78% | 1012.4 hPa | 0 mm | - | - | - |
| 1777146236 | 16.67° C | 79% | 1012.4 hPa | 0 mm | - | - | - |
| 1777145932 | 16.67° C | 79% | 1012.5 hPa | 0 mm | - | - | - |
| 1777145629 | 17.22° C | 76% | 1012.5 hPa | 0 mm | - | - | - |
| 1777145328 | 17.78° C | 75% | 1012.2 hPa | 0 mm | - | - | - |
| 1777145024 | 17.78° C | 75% | 1012.2 hPa | 0 mm | - | - | - |
| 1777144718 | 17.78° C | 75% | 1012.1 hPa | 0 mm | - | - | - |
| 1777144413 | 18.33° C | 75% | 1012.1 hPa | 0 mm | - | - | - |
| 1777144110 | 18.33° C | 73% | 1012 hPa | 0 mm | - | - | - |
| 1777143806 | 18.33° C | 73% | 1011.7 hPa | 0 mm | - | - | - |
| 1777143503 | 18.33° C | 72% | 1011.8 hPa | 0 mm | - | - | - |
| 1777143198 | 18.89° C | 70% | 1011.6 hPa | 0 mm | - | - | - |
| 1777142895 | 18.89° C | 70% | 1011.9 hPa | 0 mm | - | - | - |
| 1777142591 | 18.89° C | 70% | 1011.8 hPa | 0 mm | - | - | - |
| 1777142289 | 18.89° C | 71% | 1011.7 hPa | 0 mm | - | - | - |
| 1777141988 | 18.89° C | 72% | 1011.7 hPa | 0 mm | - | - | - |
| 1777141684 | 19.44° C | 71% | 1011.8 hPa | 0 mm | - | - | - |
| 1777141383 | 19.44° C | 70% | 1011.7 hPa | 0 mm | - | - | - |
* Rain latest hour (hover to see other rain measurements)
** Current wind speed in m/s (hover to see current wind gust speed)